Home > Weather > Allahabad > Past weeks

Flag for India Weather for the Past 2 Weeks in Allahabad, Uttar Pradesh, India

Now
68 °F

Fog.


Feels Like: 68 °F
Forecast: 55 / 76 °F
Wind: 2 mph from East

Location: Patna Airport

Current Time: Feb 8, 2016 at 10:17:51 AM

Latest Report: Feb 8, 2016 at 9:30 AM


Visibility: 1 mi

Pressure: 29.98 "Hg

Humidity: 73%

Dew point: 59 °F

Location of AllahabadLocation

Historic Weather in Allahabad — Graph

°F

Allahabad Temperature Yesterday

Maximum temperature yesterday: 82 °F (at 3:30 PM)
Minimum temperature yesterday: 63 °F (at 9:30 AM)
Average temperature yesterday: 74 °F

High & Low Weather Summary for the Past Weeks

 TemperatureHumidityPressure
High86 °F (Feb 2, 1:30 PM)100% (Jan 25, 5:30 AM)30.15 "Hg (Jan 25, 5:30 AM)
Low46 °F (Jan 25, 5:30 AM)31% (Feb 3, 1:00 PM)29.71 "Hg (Jan 27, 10:30 AM)
Average68 °F63%29.97 "Hg
* Reported Jan 24 8:30 AM — Feb 8 8:30 AM, Allahabad, Weather by CustomWeather, © 2016

Note: Actual official high and low records may vary slightly from our data, if they occured in-between our weather recording intervals... More about our weather records

Advertising

Allahabad Weather History for the Previous 24 Hours

 ConditionsComfort  
Time TempWeatherWind HumidityBarometerVisibility
8:30 AM
Mon, Feb 8
66 °FFog.7 mph73%29.95 "Hg1 mi
7:30 AM63 °FFog.5 mph77%29.98 "Hg1 mi
6:30 AM63 °FFog.5 mph77%29.95 "Hg1 mi
8:30 PM
Sun, Feb 7
63 °FHaze.5 mph83%29.92 "Hg1 mi
7:30 PM68 °FHaze.5 mph83%29.92 "Hg1 mi
7:00 PM70 °FHaze.5 mph73%29.89 "Hg1 mi
6:30 PM73 °FHaze.3 mph65%29.89 "Hg1 mi
6:00 PM75 °FHaze.2 mph57%29.89 "Hg1 mi
5:30 PM77 °FHaze.No wind54%29.89 "Hg1 mi
4:30 PM79 °FHaze.9 mph48%29.86 "Hg1 mi
3:30 PM82 °FHaze.9 mph42%29.89 "Hg1 mi
2:30 PM81 °FHaze.7 mph48%29.89 "Hg1 mi
2:00 PM81 °FHaze.8 mph45%29.92 "Hg1 mi
1:30 PM79 °FHaze.9 mph48%29.95 "Hg1 mi
1:00 PM77 °FFog.8 mph47%29.98 "Hg1 mi
12:30 PM77 °FFog.7 mph47%29.98 "Hg1 mi
11:30 AM75 °FFog.8 mph54%30.01 "Hg1 mi
11:00 AM72 °FFog.5 mph65%30.04 "Hg1 mi
10:30 AM70 °FFog.6 mph69%30.04 "Hg1 mi
Weather by CustomWeather, © 2016

See weather overviewHow to use our weather pages